Idaho Falls, ID

6:10 AM MDT on April 26, 2017 (GMT -0600)
Fanning

Weather History for KIDA - September, 2013

Change the Weather History Date:

Tuesday, September 3, 2013

  Actual Average Record
Temperature  
Mean Temperature 71 °F 62 °F  
Max Temperature 85 °F 80 °F 97 °F (1950)
Min Temperature 56 °F 45 °F 30 °F (1964)
Degree Days  
Heating Degree Days 0 4  
Month to date heating degree days 0 11  
Since 1 July heating degree days 0 76  
Cooling Degree Days 6 1  
Month to date cooling degree days 11 3  
Year to date cooling degree days 471 255  
Growing Degree Days 20 (Base 50)    
Moisture  
Dew Point 57 °F    
Average Humidity 62    
Maximum Humidity 90    
Minimum Humidity 34    
Precipitation  
Precipitation 0.14 in 0.02 in 0.14 in (2013)
Month to date precipitation 0.27 0.08  
Year to date precipitation 2.97 7.06  
Sea Level Pressure  
Sea Level Pressure 30.10 in    
Wind  
Wind Speed 4 mph (WSW)    
Max Wind Speed 39 mph    
Max Gust Speed 47 mph    
Visibility 9 miles    
Events Fog , Rain , Thunderstorm    
T = Trace of Precipitation, MM = Missing Value Source: NWS Daily Summary

Daily Weather History Graph

Daily Weather History Graph

Search for Another Location

Airport or City:

Trip Planner

Search our weather history database for the weather conditions in past years. The results will help you decide how hot, cold, wet, or windy it might be!

Date:

Astronomy

Sep. 03, 2013 Rise Set
Actual Time 6:54 AM MDT 7:59 PM MDT
Civil Twilight 6:25 AM MDT 8:28 PM MDT
Nautical Twilight 5:50 AM MDT 9:03 PM MDT
Astronomical Twilight 5:13 AM MDT 9:40 PM MDT
Moon 5:10 AM MDT (9/3) 6:49 PM MDT (9/3)
Length of Visible Light 14h 03m
Length of Day
13h 04m
Waning Crescent, 3% of the Moon is Illuminated
Sep 3
Waning Crescent
Sep 5
New
Sep 12
First Quarter
Sep 19
Full
Sep 26
Last Quarter

Hourly Weather History & Observations

Time (MDT) Temp. Heat Index Dew Point Humidity Pressure Visibility Wind Dir Wind Speed Gust Speed Precip Events Conditions
12:53 AM 57.0 °F - 54.0 °F 89% 30.06 in 3.0 mi NW 3.5 mph - N/A   Clear
1:53 AM 60.1 °F - 55.9 °F 86% 30.09 in 10.0 mi Calm Calm - N/A   Mostly Cloudy
2:53 AM 63.0 °F - 59.0 °F 87% 30.09 in 10.0 mi SSW 8.1 mph - N/A   Overcast
3:11 AM 62.6 °F - 60.8 °F 94% 30.19 in 8.0 mi SSW 8.1 mph - N/A   Overcast
3:33 AM 62.6 °F - 59.0 °F 88% 30.19 in 9.0 mi South 3.5 mph - N/A   Scattered Clouds
3:53 AM 63.0 °F - 59.0 °F 87% 30.07 in 10.0 mi SSE 3.5 mph - N/A   Partly Cloudy
4:53 AM 63.0 °F - 59.0 °F 87% 30.06 in 10.0 mi Calm Calm - N/A   Mostly Cloudy
5:53 AM 61.0 °F - 57.0 °F 87% 30.06 in 10.0 mi Calm Calm - N/A   Clear
6:53 AM 57.0 °F - 54.0 °F 89% 30.08 in 4.0 mi WNW 3.5 mph - N/A   Clear
7:00 AM 57.2 °F - 53.6 °F 88% 30.18 in 5.0 mi Calm Calm - N/A Fog Shallow Fog
7:53 AM 60.1 °F - 57.0 °F 90% 30.09 in 7.0 mi Calm Calm - N/A Fog Patches of Fog
8:53 AM 66.0 °F - 59.0 °F 78% 30.10 in 7.0 mi NNE 3.5 mph - N/A Fog Patches of Fog
9:53 AM 66.9 °F - 60.1 °F 79% 30.11 in 7.0 mi North 8.1 mph - N/A Fog Scattered Clouds
10:53 AM 72.0 °F - 55.9 °F 57% 30.10 in 7.0 mi NNE 5.8 mph - N/A   Smoke
11:53 AM 75.9 °F - 55.9 °F 50% 30.09 in 8.0 mi North 4.6 mph - N/A   Smoke
12:53 PM 80.1 °F 80.1 °F 55.0 °F 42% 30.06 in 10.0 mi Variable 4.6 mph - N/A   Smoke
1:53 PM 81.0 °F - 51.1 °F 35% 30.04 in 10.0 mi Variable 4.6 mph - N/A   Scattered Clouds
1:55 PM 80.6 °F - 51.8 °F 37% 30.17 in 10.0 mi NW 4.6 mph - N/A   Scattered Clouds
2:53 PM 82.9 °F 81.8 °F 53.1 °F 36% 30.00 in 10.0 mi Calm Calm - N/A   Scattered Clouds
3:53 PM 84.0 °F 82.5 °F 53.1 °F 34% 29.96 in 10.0 mi Calm Calm - N/A   Clear
4:53 PM 82.9 °F 82.0 °F 55.0 °F 38% 29.96 in 10.0 mi Calm Calm - N/A   Mostly Cloudy
5:51 PM 78.8 °F - 57.2 °F 47% 30.12 in 10.0 mi WSW 6.9 mph - N/A Thunderstorm Overcast
5:53 PM 78.8 °F - 57.2 °F 47% 29.99 in 10.0 mi WSW 6.9 mph - N/A Thunderstorm Overcast
5:55 PM 78.8 °F - 57.2 °F 47% 30.12 in 10.0 mi SW 8.1 mph - 0.00 in Rain , Thunderstorm Light Rain
6:02 PM 77.0 °F - 57.2 °F 50% 30.13 in 10.0 mi SW 10.4 mph - 0.00 in Rain , Thunderstorm Light Rain
6:18 PM 69.8 °F - 60.8 °F 73% 30.18 in 8.0 mi SW 31.1 mph 47.2 mph 0.01 in Rain Light Rain
6:34 PM 66.2 °F - 60.8 °F 83% 30.19 in 7.0 mi South 25.3 mph 33.4 mph 0.03 in Rain , Thunderstorm Light Thunderstorms and Rain
6:53 PM 66.0 °F - 61.0 °F 84% 30.11 in 4.0 mi SSW 19.6 mph 27.6 mph 0.06 in Rain , Thunderstorm Thunderstorms and Rain
7:29 PM 64.4 °F - 60.8 °F 88% 30.17 in 10.0 mi SW 5.8 mph - 0.07 in Rain Light Rain
7:53 PM 66.0 °F - 61.0 °F 84% 30.08 in 10.0 mi ESE 5.8 mph - 0.07 in   Scattered Clouds
8:53 PM 66.0 °F - 61.0 °F 84% 30.09 in 10.0 mi Calm Calm - N/A   Mostly Cloudy
9:53 PM 64.9 °F - 61.0 °F 87% 30.10 in 10.0 mi NNW 3.5 mph - 0.01 in Rain Light Rain
10:53 PM 64.0 °F - 57.9 °F 80% 30.11 in 10.0 mi ENE 8.1 mph - 0.00 in   Mostly Cloudy
11:53 PM 64.0 °F - 59.0 °F 84% 30.10 in 10.0 mi East 5.8 mph - N/A   Overcast